N3LF Weather Reports


time (UTC)temp
C
wind
direction
speed
KPH
gust
KPH
rain 1hr
cm
rain 24hr
cm
rain mn
cm
humidity
%
barometer
mb
20260510010020 20 232 0.0 0.0 0.00 0.00 0.00 60 1013.6
20260510005515 20 238 0.0 0.0 0.00 0.00 0.00 59 1013.6
20260510005013 20 243 0.0 1.6 0.00 0.00 0.00 59 1013.5
20260510004511 21 237 0.0 0.0 0.00 0.00 0.00 57 1013.5
20260510004009 21 238 0.0 0.0 0.00 0.00 0.00 55 1013.4
20260510003505 21 237 0.0 0.0 0.00 0.00 0.00 56 1013.3
20260510003000 22 237 0.0 0.0 0.00 0.00 0.00 57 1013.2
20260510002456 22 237 0.0 0.0 0.00 0.00 0.00 54 1013.1
20260510001953 23 239 0.0 0.0 0.00 0.00 0.00 54 1013.3
20260510001450 24 238 0.0 0.0 0.00 0.00 0.00 52 1013.1
20260510000948 25 247 0.0 0.0 0.00 0.00 0.00 49 1013.2
20260510000444 26 245 0.0 0.0 0.00 0.00 0.00 46 1013.2
20260509235940 25 245 0.0 0.0 0.00 0.00 0.00 45 1013.1
20260509235437 26 245 0.0 0.0 0.00 0.00 0.00 44 1013.2
20260509234933 26 245 0.0 0.0 0.00 0.00 0.00 44 1013.2
20260509234430 26 236 0.0 1.6 0.00 0.00 0.00 44 1013.1
20260509233929 26 237 0.0 0.0 0.00 0.00 0.00 44 1012.9
20260509233426 26 249 0.0 1.6 0.00 0.00 0.00 42 1013.0
20260509232922 26 223 0.0 0.0 0.00 0.00 0.00 40 1013.0
20260509232420 26 223 0.0 0.0 0.00 0.00 0.00 39 1013.0
20260509231915 26 223 1.6 1.6 0.00 0.00 0.00 42 1012.9
20260509231412 26 223 1.6 1.6 0.00 0.00 0.00 41 1013.1
20260509230910 26 200 1.6 4.8 0.00 0.00 0.00 42 1013.1
20260509230407 27 226 4.8 4.8 0.00 0.00 0.00 40 1013.0
20260509225902 27 236 1.6 1.6 0.00 0.00 0.00 40 1013.2
20260509225359 27 236 0.0 1.6 0.00 0.00 0.00 39 1013.0
20260509224855 27 227 1.6 4.8 0.00 0.00 0.00 39 1013.1
20260509224351 26 201 3.2 4.8 0.00 0.00 0.00 39 1013.2
20260509223849 26 231 3.2 3.2 0.00 0.00 0.00 38 1013.0
20260509223345 27 227 1.6 3.2 0.00 0.00 0.00 40 1012.9
20260509222842 27 303 1.6 4.8 0.00 0.00 0.00 40 1013.1
20260509222337 27 242 1.6 3.2 0.00 0.00 0.00 40 1013.0
20260509221833 26 246 0.0 3.2 0.00 0.00 0.00 39 1012.9
20260509221331 27 291 1.6 9.7 0.00 0.00 0.00 42 1012.9
20260509220831 27 286 1.6 4.8 0.00 0.00 0.00 41 1012.9
20260509220327 28 178 3.2 4.8 0.00 0.00 0.00 39 1012.7
20260509215823 28 259 0.0 1.6 0.00 0.00 0.00 41 1012.7
20260509215320 27 100 1.6 4.8 0.00 0.00 0.00 42 1012.8
20260509214816 27 252 1.6 4.8 0.00 0.00 0.00 41 1012.8
20260509214314 28 206 4.8 4.8 0.00 0.00 0.00 41 1012.6
20260509213811 28 298 1.6 3.2 0.00 0.00 0.00 43 1012.6
20260509213306 27 233 1.6 1.6 0.00 0.00 0.00 43 1012.5
20260509212804 27 208 1.6 1.6 0.00 0.00 0.00 41 1012.7
20260509212301 27 245 1.6 3.2 0.00 0.00 0.00 43 1012.5
20260509211756 27 226 3.2 4.8 0.00 0.00 0.00 44 1012.6
20260509211253 26 267 0.0 3.2 0.00 0.00 0.00 44 1012.6
20260509210750 26 211 1.6 3.2 0.00 0.00 0.00 42 1012.7
20260509210248 27 237 1.6 4.8 0.00 0.00 0.00 42 1012.6
20260509205747 27 274 1.6 4.8 0.00 0.00 0.00 43 1012.4
20260509205242 28 347 1.6 3.2 0.00 0.00 0.00 41 1012.4
20260509204738 27 228 0.0 4.8 0.00 0.00 0.00 46 1012.4
20260509204234 27 236 1.6 4.8 0.00 0.00 0.00 43 1012.4
20260509203730 27 311 4.8 4.8 0.00 0.00 0.00 43 1012.8
20260509203229 27 220 0.0 6.4 0.00 0.00 0.00 43 1012.7
20260509202724 26 231 0.0 3.2 0.00 0.00 0.00 47 1012.6
20260509202220 25 228 6.4 9.7 0.00 0.00 0.00 44 1012.8
20260509201715 26 354 4.8 6.4 0.00 0.00 0.00 44 1012.6
20260509201212 27 240 3.2 12.9 0.00 0.00 0.00 45 1012.8
20260509200708 26 285 1.6 3.2 0.00 0.00 0.00 44 1012.8
20260509200203 25 232 1.6 3.2 0.00 0.00 0.00 48 1013.0
20260509195659 27 338 4.8 9.7 0.00 0.00 0.00 43 1012.9
20260509195155 26 299 3.2 6.4 0.00 0.00 0.00 44 1013.1
20260509194654 26 220 0.0 4.8 0.00 0.00 0.00 44 1013.2
20260509194152 26 206 3.2 3.2 0.00 0.00 0.00 46 1013.3
20260509193648 26 351 3.2 6.4 0.00 0.00 0.00 43 1013.2
20260509193143 26 216 0.0 4.8 0.00 0.00 0.00 47 1013.4
20260509192640 26 133 1.6 4.8 0.00 0.00 0.00 46 1013.4
20260509192135 25 337 8.0 9.7 0.00 0.00 0.00 48 1013.4
20260509191635 25 270 4.8 9.7 0.00 0.00 0.00 50 1013.3
20260509191132 25 200 4.8 6.4 0.00 0.00 0.00 52 1013.5
20260509190629 26 247 4.8 9.7 0.00 0.00 0.00 49 1013.5
20260509190126 27 96 6.4 9.7 0.00 0.00 0.00 46 1013.5
20260509185624 27 220 1.6 4.8 0.00 0.00 0.00 48 1013.4
20260509185119 26 35 1.6 3.2 0.00 0.00 0.00 50 1013.5
20260509184618 25 252 1.6 3.2 0.00 0.00 0.00 51 1013.4
20260509184114 24 234 8.0 12.9 0.00 0.00 0.00 52 1013.5
20260509183610 25 242 4.8 6.4 0.00 0.00 0.00 53 1013.3
20260509183106 25 285 6.4 11.3 0.00 0.00 0.00 53 1013.3
20260509182602 25 284 0.0 3.2 0.00 0.00 0.00 53 1013.3
20260509182059 25 252 3.2 9.7 0.00 0.00 0.00 56 1013.3
20260509181557 24 232 1.6 3.2 0.00 0.00 0.00 54 1013.3
20260509181054 23 199 0.0 6.4 0.00 0.00 0.00 54 1013.3
20260509180550 26 347 11.3 12.9 0.00 0.00 0.00 52 1013.4
20260509180048 26 205 0.0 1.6 0.00 0.00 0.00 55 1013.4
20260509175543 23 226 0.0 3.2 0.00 0.00 0.00 62 1013.2
20260509175040 23 322 1.6 4.8 0.00 0.00 0.00 56 1013.4
20260509174536 23 81 3.2 3.2 0.00 0.00 0.00 58 1013.4
20260509174032 23 240 1.6 3.2 0.00 0.00 0.00 60 1013.2
20260509173526 22 225 3.2 3.2 0.00 0.00 0.00 63 1013.3
20260509173023 24 258 3.2 6.4 0.00 0.00 0.00 58 1013.3
20260509172520 24 215 0.0 1.6 0.00 0.00 0.00 58 1013.4
20260509172015 23 217 1.6 3.2 0.00 0.00 0.00 60 1013.8
20260509171512 23 314 4.8 9.7 0.00 0.00 0.00 62 1013.5
20260509171009 22 39 3.2 6.4 0.00 0.00 0.00 64 1013.4
20260509170504 22 54 6.4 12.9 0.00 0.00 0.00 63 1013.5
20260509165959 22 27 3.2 9.7 0.00 0.00 0.00 62 1013.5
20260509165459 22 211 4.8 4.8 0.00 0.00 0.00 66 1013.6
20260509164955 23 331 3.2 6.4 0.00 0.00 0.00 62 1013.5
20260509164451 22 315 4.8 9.7 0.00 0.00 0.00 65 1013.6
20260509163947 22 352 3.2 11.3 0.00 0.00 0.00 65 1013.8
20260509163445 22 353 4.8 4.8 0.00 0.00 0.00 67 1013.8
20260509162943 21 72 3.2 4.8 0.00 0.00 0.00 65 1013.6
20260509162443 21 38 3.2 6.4 0.00 0.00 0.00 67 1013.7
20260509161938 22 203 3.2 4.8 0.00 0.00 0.00 66 1013.7
20260509161434 22 241 4.8 6.4 0.00 0.00 0.00 68 1013.7
20260509160930 22 9 4.8 6.4 0.00 0.00 0.00 67 1013.5
20260509160426 21 272 3.2 9.7 0.00 0.00 0.00 69 1013.5
20260509155921 22 244 1.6 4.8 0.00 0.00 0.00 68 1013.5
20260509155418 21 229 1.6 11.3 0.00 0.00 0.00 70 1013.5
20260509154915 21 338 6.4 9.7 0.00 0.00 0.00 70 1013.5
20260509154411 22 106 1.6 3.2 0.00 0.00 0.00 67
20260509153908 20 66 0.0 6.4 0.00 0.00 0.00 71
20260509153405 21 158 1.6 4.8 0.00 0.00 0.00 72
20260509152902 20 149 0.0 3.2 0.00 0.00 0.00 74
20260509152358 20 14 3.2 11.3 0.00 0.00 0.00 75
20260509151855 21 278 4.8 9.7 0.00 0.00 0.00 74
20260509151351 20 294 1.6 4.8 0.00 0.00 0.00 76
20260509150850 19 293 8.0 11.3 0.00 0.00 0.00 78
20260509150347 20 198 1.6 3.2 0.00 0.00 0.00 77
20260509145844 19 195 3.2 9.7 0.00 0.00 0.00 78
20260509145338 19 270 4.8 6.4 0.00 0.00 0.00 78
20260509144835 18 6 3.2 4.8 0.00 0.00 0.00 79
20260509144332 18 250 8.0 9.7 0.00 0.00 0.00 78 1013.1
20260509143829 18 253 3.2 9.7 0.00 0.00 0.00 80 1013.1
20260509143327 18 304 6.4 6.4 0.00 0.00 0.00 81 1013.1
20260509142823 18 220 4.8 6.4 0.00 0.00 0.00 81 1013.1
20260509142319 18 271 4.8 6.4 0.00 0.00 0.00 81 1013.1
20260509141815 17 352 3.2 4.8 0.00 0.00 0.00 83 1013.1
20260509141312 17 231 8.0 11.3 0.00 0.00 0.00 84 1013.1
20260509140808 17 306 6.4 6.4 0.00 0.00 0.00 84 1013.1
20260509140306 17 196 1.6 4.8 0.00 0.00 0.00 83 1013.1
20260509135803 17 196 3.2 4.8 0.00 0.00 0.00 84 1013.1
20260509135301 17 50 1.6 6.4 0.00 0.00 0.00 85 1013.1
20260509134758 17 303 6.4 11.3 0.00 0.00 0.00 83 1013.1
20260509134255 17 196 3.2 4.8 0.00 0.00 0.00 85 1013.1
20260509133752 17 304 3.2 9.7 0.00 0.00 0.00 85 1012.8
20260509133248 16 331 6.4 11.3 0.00 0.00 0.00 86 1013.1
20260509132747 16 289 3.2 4.8 0.00 0.00 0.00 87 1012.9
20260509132246 16 277 1.6 3.2 0.00 0.00 0.00 87 1012.9
20260509131742 16 280 3.2 6.4 0.00 0.00 0.00 87 1012.9
20260509131239 16 239 3.2 6.4 0.00 0.00 0.00 87 1012.9
20260509130735 16 133 3.2 4.8 0.00 0.00 0.00 86 1012.8
20260509130230 16 256 3.2 4.8 0.00 0.00 0.00 87 1013.0
20260509125727 16 265 3.2 4.8 0.00 0.00 0.00 87 1012.9
20260509125225 16 184 1.6 3.2 0.00 0.00 0.00 88 1012.7
20260509124721 16 199 4.8 4.8 0.00 0.00 0.00 88 1013.0
20260509124217 15 205 1.6 6.4 0.00 0.00 0.00 90 1012.8
20260509123716 15 226 1.6 3.2 0.00 0.00 0.00 91 1012.7
20260509123212 15 211 0.0 1.6 0.00 0.00 0.00 92 1012.7
20260509122708 15 200 0.0 1.6 0.00 0.00 0.00 90 1012.8
20260509122205 15 232 0.0 1.6 0.00 0.00 0.00 90 1012.7
20260509121702 14 229 0.0 1.6 0.00 0.00 0.00 92 1012.4
20260509121200 14 49 1.6 4.8 0.00 0.00 0.00 93 1012.4
20260509120658 14 191 0.0 0.0 0.00 0.00 0.00 92 1012.3
20260509120155 13 191 0.0 0.0 0.00 0.00 0.00 93 1012.2
20260509115653 13 185 0.0 1.6 0.00 0.00 0.00 94 1012.2
20260509115150 13 224 0.0 0.0 0.00 0.00 0.00 92 1012.1
20260509114648 13 223 0.0 0.0 0.00 0.00 0.00 94 1012.2
20260509114147 12 209 0.0 0.0 0.00 0.00 0.00 94 1011.9
20260509113645 13 223 0.0 0.0 0.00 0.00 0.00 95 1011.9
20260509113141 12 223 0.0 0.0 0.00 0.00 0.00 97 1011.9
20260509112638 12 223 0.0 0.0 0.00 0.00 0.00 98 1011.9
20260509112135 12 225 0.0 0.0 0.00 0.00 0.00 99 1011.9
20260509111632 11 225 0.0 0.0 0.00 0.00 0.00 99 1011.9
20260509111129 11 223 0.0 0.0 0.00 0.00 0.00 99 1011.8
20260509110626 11 71 0.0 0.0 0.00 0.00 0.00 99 1011.6
20260509110123 11 71 0.0 0.0 0.00 0.00 0.00 99 1011.6
20260509105621 11 71 0.0 0.0 0.00 0.00 0.00 99 1011.7
20260509105119 11 65 0.0 0.0 0.00 0.00 0.00 98 1011.7
20260509104615 11 71 0.0 1.6 0.00 0.00 0.00 98 1011.4
20260509104112 11 191 0.0 1.6 0.00 0.00 0.00 98 1011.6
20260509103610 11 229 0.0 1.6 0.00 0.00 0.00 98 1011.6
20260509103108 11 223 0.0 1.6 0.00 0.00 0.00 98 1011.4
20260509102605 11 224 0.0 0.0 0.00 0.00 0.00 97 1011.6
20260509102102 12 224 0.0 0.0 0.00 0.00 0.00 97 1011.6
20260509101558 12 225 0.0 0.0 0.00 0.00 0.00 97 1011.4
20260509101055 12 224 0.0 0.0 0.00 0.00 0.00 96 1011.7
20260509100552 12 225 0.0 0.0 0.00 0.00 0.00 96 1011.7
20260509100050 12 224 0.0 0.0 0.00 0.00 0.00 96 1011.5
20260509095546 12 225 0.0 0.0 0.00 0.00 0.00 96 1011.4
20260509095044 12 222 0.0 0.0 0.00 0.00 0.00 95 1011.4
20260509094539 12 224 0.0 0.0 0.00 0.00 0.00 95 1011.5
20260509094037 12 224 0.0 0.0 0.00 0.00 0.00 95 1011.7
20260509093535 12 224 0.0 0.0 0.00 0.00 0.00 94 1011.5
20260509093032 12 224 0.0 0.0 0.00 0.00 0.00 94 1011.7
20260509092530 13 224 0.0 0.0 0.00 0.00 0.00 94 1012.0
20260509092029 13 225 0.0 0.0 0.00 0.00 0.00 93 1011.8
20260509091526 13 224 0.0 0.0 0.00 0.00 0.00 92 1011.8
20260509091022 13 182 0.0 0.0 0.00 0.00 0.00 92 1011.9
20260509090520 13 225 0.0 0.0 0.00 0.00 0.00 93 1012.2
20260509090017 13 229 0.0 0.0 0.00 0.00 0.00 93 1012.3
20260509085514 13 226 0.0 0.0 0.00 0.00 0.00 91 1012.1
20260509085010 13 225 0.0 0.0 0.00 0.00 0.00 91 1012.3
20260509084507 13 246 0.0 0.0 0.00 0.00 0.00 91 1012.5
20260509084004 13 248 0.0 0.0 0.00 0.00 0.00 91 1012.2
20260509083502 13 223 0.0 0.0 0.00 0.00 0.00 90 1012.3
20260509082958 13 224 0.0 0.0 0.00 0.00 0.00 89 1012.3
20260509082456 13 222 0.0 0.0 0.00 0.00 0.00 88 1012.2
20260509081952 13 249 0.0 1.6 0.00 0.00 0.00 89 1012.3
20260509081450 13 223 0.0 1.6 0.00 0.00 0.00 88 1011.9
20260509080946 13 247 0.0 0.0 0.00 0.00 0.00 89 1012.2
20260509080445 13 245 0.0 0.0 0.00 0.00 0.00 89 1012.3
20260509075943 13 246 0.0 0.0 0.00 0.00 0.00 89 1012.1
20260509075439 13 246 0.0 0.0 0.00 0.00 0.00 89 1012.1
20260509074937 13 223 0.0 1.6 0.00 0.00 0.00 89 1012.1
20260509074435 13 224 0.0 0.0 0.00 0.00 0.00 89 1011.9
20260509073931 13 223 0.0 0.0 0.00 0.00 0.00 89 1011.9
20260509073427 13 238 0.0 0.0 0.00 0.00 0.00 89 1012.1
20260509072924 13 223 0.0 3.2 0.00 0.00 0.00 87 1012.1
20260509072421 13 197 0.0 1.6 0.00 0.00 0.00 86 1012.1
20260509071917 13 216 1.6 3.2 0.00 0.00 0.00 87 1012.1
20260509071414 13 234 0.0 0.0 0.00 0.00 0.00 87 1012.2
20260509070912 13 221 0.0 1.6 0.00 0.00 0.00 87 1012.2
20260509070408 13 217 0.0 1.6 0.00 0.00 0.00 87 1012.1
20260509065903 13 207 0.0 0.0 0.00 0.00 0.00 87 1012.4
20260509065400 13 233 0.0 0.0 0.00 0.00 0.00 87 1012.3
20260509064856 13 297 1.6 1.6 0.00 0.00 0.00 89 1012.3
20260509064354 13 213 0.0 0.0 0.00 0.00 0.00 88 1012.1
20260509063852 13 222 0.0 0.0 0.00 0.00 0.00 88 1012.1
20260509063347 13 218 0.0 0.0 0.00 0.00 0.00 88 1012.3
20260509062845 13 227 0.0 0.0 0.00 0.00 0.00 86 1012.5
20260509062342 14 221 0.0 0.0 0.00 0.00 0.00 86 1012.4
20260509061839 14 213 0.0 0.0 0.00 0.00 0.00 85 1012.5
20260509061337 14 217 0.0 1.6 0.00 0.00 0.00 84 1012.9
20260509060834 14 228 0.0 0.0 0.00 0.00 0.00 83 1013.0
20260509060331 14 230 0.0 0.0 0.00 0.00 0.00 85 1012.9
20260509055826 14 223 0.0 1.6 0.00 0.00 0.00 84 1012.9
20260509055321 13 219 1.6 1.6 0.00 0.00 0.00 87 1013.0
20260509054819 13 219 0.0 0.0 0.00 0.00 0.00 89 1012.9
20260509054315 13 243 0.0 1.6 0.00 0.00 0.00 88 1012.9
20260509053814 12 312 0.0 0.0 0.00 0.00 0.00 88 1013.1
20260509053311 13 226 0.0 0.0 0.00 0.00 0.00 87 1013.1
20260509052809 13 240 0.0 0.0 0.00 0.00 0.00 87 1013.2
20260509052307 13 220 0.0 0.0 0.00 0.00 0.00 86 1013.1
20260509051804 12 230 0.0 0.0 0.00 0.00 0.00 87 1013.1
20260509051302 13 232 0.0 0.0 0.00 0.00 0.00 88 1012.9
20260509050758 13 232 0.0 0.0 0.00 0.00 0.00 86 1013.1
20260509050255 13 240 0.0 0.0 0.00 0.00 0.00 84 1013.3
20260509045752 13 233 0.0 0.0 0.00 0.00 0.00 83 1013.2
20260509045248 13 257 0.0 0.0 0.00 0.00 0.00 82 1013.1
20260509044746 13 231 0.0 0.0 0.00 0.00 0.00 83 1013.0
20260509044244 13 228 0.0 0.0 0.00 0.00 0.00 84 1012.9
20260509043740 13 230 0.0 0.0 0.00 0.00 0.00 82 1012.9
20260509043236 13 230 0.0 0.0 0.00 0.00 0.00 80 1012.8
20260509042732 13 196 0.0 0.0 0.00 0.00 0.00 80 1012.9
20260509042228 13 195 0.0 1.6 0.00 0.00 0.00 78 1012.9
20260509041725 13 234 0.0 0.0 0.00 0.00 0.00 79 1012.8
20260509041222 13 230 0.0 0.0 0.00 0.00 0.00 77 1012.7
20260509040721 13 224 0.0 0.0 0.00 0.00 0.00 78 1012.7
20260509040217 13 230 0.0 0.0 0.00 0.00 0.00 81 1012.8
20260509035714 13 238 0.0 0.0 0.00 0.00 0.00 82 1013.1
20260509035211 13 230 0.0 0.0 0.00 0.00 0.00 81 1013.0
20260509034708 14 232 0.0 0.0 0.00 0.00 0.00 77 1013.0
20260509034206 14 247 0.0 0.0 0.00 0.00 0.00 74 1013.0
20260509033702 13 235 0.0 0.0 0.00 0.00 0.00 76 1013.2
20260509033159 14 231 0.0 0.0 0.00 0.00 0.00 77 1013.3
20260509032656 13 231 0.0 0.0 0.00 0.00 0.00 77 1013.0
20260509032153 13 239 0.0 0.0 0.00 0.00 0.00 80 1013.0
20260509031651 13 239 0.0 0.0 0.00 0.00 0.00 78 1013.0
20260509031148 13 239 0.0 0.0 0.00 0.00 0.00 77 1013.0
20260509030646 14 239 0.0 0.0 0.00 0.00 0.00 77 1013.1
20260509030143 14 240 0.0 0.0 0.00 0.00 0.00 76 1013.1
20260509025639 13 247 0.0 0.0 0.00 0.00 0.00 75 1013.1
20260509025135 14 239 0.0 0.0 0.00 0.00 0.00 78 1012.9
20260509024631 14 239 0.0 0.0 0.00 0.00 0.00 79 1012.9
20260509024127 14 247 0.0 0.0 0.00 0.00 0.00 78 1012.7
20260509023625 14 249 0.0 0.0 0.00 0.00 0.00 77 1012.9
20260509023122 14 230 0.0 0.0 0.00 0.00 0.00 76 1012.9
20260509022618 14 230 0.0 0.0 0.00 0.00 0.00 75 1012.9
20260509022116 14 230 0.0 0.0 0.00 0.00 0.00 78 1013.0
20260509021613 14 230 0.0 0.0 0.00 0.00 0.00 78 1012.8
20260509021110 14 230 0.0 0.0 0.00 0.00 0.00 80 1012.7
20260509020608 15 230 0.0 0.0 0.00 0.00 0.00 79 1012.8
20260509020104 15 230 0.0 0.0 0.00 0.00 0.00 75 1013.1
20260509015604 15 230 0.0 0.0 0.00 0.00 0.00 77 1012.8
20260509015100 15 230 0.0 0.0 0.00 0.00 0.00 74 1012.9
20260509014557 15 230 0.0 0.0 0.00 0.00 0.00 79 1012.9
20260509014053 15 230 0.0 0.0 0.00 0.00 0.00 76 1012.9
20260509013550 16 230 0.0 0.0 0.00 0.00 0.00 68 1012.9
20260509013046 16 230 0.0 0.0 0.00 0.00 0.00 68 1013.1
20260509012543 16 230 0.0 0.0 0.00 0.00 0.00 68 1012.8
20260509012039 16 230 0.0 0.0 0.00 0.00 0.00 66 1012.7
20260509011538 16 230 0.0 0.0 0.00 0.00 0.00 68 1012.7
20260509011034 16 230 0.0 0.0 0.00 0.00 0.00 64
20260509010532 17 230 0.0 0.0 0.00 0.00 0.00 63